Wetterdaten: Woche 20.11.17 - 26.11.17 (KW47)
Datum Zeit Temperatur Luftfeuchte Luftdruck Niederschlag Windrichtung Sonnenschein Solar Wind
20.11.2017 00:00 0,2 C 92 % 1023,4 hPa 0,0 l/m N 0,00 h 0 W/m 1,2 km/h (1 Bft)
20.11.2017 01:00 -0,4 C 93 % 1023,4 hPa 0,0 l/m W 0,00 h 0 W/m 0,8 km/h (0 Bft)
20.11.2017 02:00 -0,4 C 94 % 1023,2 hPa 0,0 l/m W 0,00 h 0 W/m 11,0 km/h (2 Bft)
20.11.2017 03:00 -0,2 C 95 % 1023,0 hPa 0,0 l/m W-SW 0,00 h 0 W/m 10,7 km/h (2 Bft)
20.11.2017 04:00 -0,6 C 95 % 1023,0 hPa 0,0 l/m W-SW 0,00 h 0 W/m 1,9 km/h (1 Bft)
20.11.2017 05:00 -0,6 C 95 % 1023,0 hPa 0,0 l/m W-SW 0,00 h 0 W/m 0,5 km/h (0 Bft)
20.11.2017 06:00 -0,4 C 96 % 1023,0 hPa 0,0 l/m N 0,00 h 0 W/m 1,1 km/h (0 Bft)
20.11.2017 07:00 -0,2 C 96 % 1023,1 hPa 0,0 l/m W-SW 0,00 h 10 W/m 4,3 km/h (1 Bft)
20.11.2017 08:00 0,3 C 96 % 1023,2 hPa 0,0 l/m W-SW 0,00 h 42 W/m 0,8 km/h (0 Bft)
20.11.2017 09:00 1,0 C 97 % 1023,3 hPa 0,0 l/m SW 0,00 h 85 W/m 8,0 km/h (2 Bft)
20.11.2017 10:00 1,3 C 96 % 1023,7 hPa 0,0 l/m SW 0,00 h 115 W/m 3,9 km/h (1 Bft)
20.11.2017 11:00 1,9 C 96 % 1023,5 hPa 0,0 l/m SW 0,00 h 114 W/m 2,4 km/h (1 Bft)
20.11.2017 12:00 2,5 C 94 % 1022,6 hPa 0,0 l/m W-SW 0,00 h 119 W/m 11,1 km/h (2 Bft)
20.11.2017 13:00 2,7 C 94 % 1021,7 hPa 0,0 l/m SW 0,00 h 116 W/m 14,8 km/h (3 Bft)
20.11.2017 14:00 2,6 C 94 % 1020,8 hPa 0,0 l/m SW 0,00 h 76 W/m 12,3 km/h (3 Bft)
20.11.2017 15:00 2,9 C 91 % 1020,8 hPa 0,0 l/m W-SW 0,00 h 47 W/m 10,9 km/h (2 Bft)
20.11.2017 16:00 2,8 C 89 % 1020,5 hPa 0,0 l/m W-SW 0,00 h 12 W/m 17,6 km/h (3 Bft)
20.11.2017 17:00 2,7 C 88 % 1020,1 hPa 0,0 l/m SW 0,00 h 0 W/m 15,6 km/h (3 Bft)
20.11.2017 18:00 2,7 C 89 % 1019,9 hPa 0,0 l/m SW 0,00 h 0 W/m 21,7 km/h (4 Bft)
20.11.2017 19:00 2,6 C 91 % 1019,8 hPa 0,8 l/m SW 0,00 h 0 W/m 17,2 km/h (3 Bft)
20.11.2017 20:00 2,4 C 94 % 1019,5 hPa 0,6 l/m SW 0,00 h 0 W/m 15,2 km/h (3 Bft)
20.11.2017 21:00 2,5 C 95 % 1019,1 hPa 0,0 l/m SW 0,00 h 0 W/m 16,2 km/h (3 Bft)
20.11.2017 22:00 2,6 C 95 % 1018,9 hPa 0,0 l/m SW 0,00 h 0 W/m 14,0 km/h (3 Bft)
20.11.2017 23:00 2,8 C 94 % 1018,7 hPa 0,0 l/m SW 0,00 h 0 W/m 13,6 km/h (3 Bft)
21.11.2017 00:00 3,2 C 94 % 1018,4 hPa 1,0 l/m SW 0,00 h 0 W/m 18,3 km/h (3 Bft)
21.11.2017 01:00 3,3 C 95 % 1018,0 hPa 0,8 l/m W-SW 0,00 h 0 W/m 14,8 km/h (3 Bft)
21.11.2017 02:00 3,4 C 96 % 1018,2 hPa 1,8 l/m SW 0,00 h 0 W/m 17,3 km/h (3 Bft)
21.11.2017 03:00 3,3 C 97 % 1018,7 hPa 0,6 l/m SW 0,00 h 0 W/m 18,2 km/h (3 Bft)
21.11.2017 04:00 3,2 C 97 % 1018,5 hPa 0,0 l/m SW 0,00 h 0 W/m 17,8 km/h (3 Bft)
21.11.2017 05:00 3,8 C 98 % 1018,3 hPa 0,2 l/m W-SW 0,00 h 0 W/m 22,5 km/h (4 Bft)
21.11.2017 06:00 3,8 C 98 % 1018,3 hPa 0,2 l/m SW 0,00 h 0 W/m 10,3 km/h (2 Bft)
21.11.2017 07:00 3,8 C 98 % 1018,5 hPa 0,2 l/m S-SW 0,08 h 8 W/m 7,9 km/h (2 Bft)
21.11.2017 08:00 4,0 C 98 % 1018,5 hPa 0,2 l/m SW 0,00 h 24 W/m 15,0 km/h (3 Bft)
21.11.2017 09:00 4,3 C 98 % 1018,6 hPa 0,4 l/m SW 0,00 h 47 W/m 12,2 km/h (2 Bft)
21.11.2017 10:00 4,6 C 98 % 1018,8 hPa 1,6 l/m SW 0,00 h 58 W/m 9,9 km/h (2 Bft)
21.11.2017 11:00 4,9 C 98 % 1018,4 hPa 0,0 l/m SW 0,00 h 70 W/m 12,1 km/h (2 Bft)
21.11.2017 12:00 5,2 C 97 % 1017,8 hPa 0,4 l/m S-SW 0,08 h 131 W/m 16,4 km/h (3 Bft)
21.11.2017 13:00 6,1 C 95 % 1017,2 hPa 0,0 l/m S-SW 0,25 h 168 W/m 20,6 km/h (4 Bft)
21.11.2017 14:00 6,9 C 92 % 1016,8 hPa 0,0 l/m S-SW 0,75 h 146 W/m 14,0 km/h (3 Bft)
21.11.2017 15:00 7,2 C 91 % 1016,6 hPa 0,0 l/m SW 0,00 h 60 W/m 10,9 km/h (2 Bft)
21.11.2017 16:00 6,9 C 91 % 1016,5 hPa 0,0 l/m SW 0,08 h 12 W/m 13,4 km/h (3 Bft)
21.11.2017 17:00 6,5 C 90 % 1016,5 hPa 0,0 l/m SW 0,00 h 0 W/m 15,7 km/h (3 Bft)
21.11.2017 18:00 6,3 C 88 % 1016,3 hPa 0,0 l/m SW 0,00 h 0 W/m 12,9 km/h (3 Bft)
21.11.2017 19:00 6,3 C 86 % 1016,0 hPa 0,0 l/m SW 0,00 h 0 W/m 14,2 km/h (3 Bft)
21.11.2017 20:00 6,5 C 85 % 1015,7 hPa 0,0 l/m SW 0,00 h 0 W/m 14,5 km/h (3 Bft)
21.11.2017 21:00 6,4 C 85 % 1015,8 hPa 0,0 l/m SW 0,00 h 0 W/m 13,7 km/h (3 Bft)
21.11.2017 22:00 5,9 C 85 % 1015,7 hPa 0,0 l/m SW 0,00 h 0 W/m 5,2 km/h (1 Bft)
21.11.2017 23:00 4,4 C 86 % 1015,7 hPa 0,0 l/m N 0,00 h 0 W/m 0,0 km/h (0 Bft)
22.11.2017 00:00 4,2 C 91 % 1015,5 hPa 0,0 l/m SW 0,00 h 0 W/m 11,9 km/h (2 Bft)
22.11.2017 01:00 5,6 C 88 % 1015,3 hPa 0,0 l/m SW 0,00 h 0 W/m 14,2 km/h (3 Bft)
22.11.2017 02:00 5,2 C 88 % 1015,1 hPa 0,0 l/m SW 0,00 h 0 W/m 13,2 km/h (3 Bft)
22.11.2017 03:00 4,8 C 89 % 1014,7 hPa 0,0 l/m SW 0,00 h 0 W/m 8,4 km/h (2 Bft)
22.11.2017 04:00 5,5 C 87 % 1014,4 hPa 0,0 l/m SW 0,00 h 0 W/m 15,7 km/h (3 Bft)
22.11.2017 05:00 5,2 C 87 % 1014,4 hPa 0,0 l/m SW 0,00 h 0 W/m 11,4 km/h (2 Bft)
22.11.2017 06:00 4,3 C 88 % 1014,2 hPa 0,0 l/m SW 0,00 h 0 W/m 5,5 km/h (1 Bft)
22.11.2017 07:00 4,5 C 87 % 1014,2 hPa 0,0 l/m SW 0,08 h 10 W/m 9,1 km/h (2 Bft)
22.11.2017 08:00 4,8 C 86 % 1014,1 hPa 0,0 l/m SW 0,00 h 40 W/m 15,4 km/h (3 Bft)
22.11.2017 09:00 6,4 C 83 % 1014,0 hPa 0,0 l/m S-SW 0,92 h 177 W/m 10,5 km/h (2 Bft)
22.11.2017 10:00 7,1 C 85 % 1014,3 hPa 0,0 l/m S-SW 0,92 h 284 W/m 11,8 km/h (2 Bft)
22.11.2017 11:00 9,5 C 77 % 1013,9 hPa 0,0 l/m S-SW 1,00 h 357 W/m 10,3 km/h (2 Bft)
22.11.2017 12:00 11,1 C 72 % 1013,6 hPa 0,0 l/m S-SW 1,00 h 370 W/m 10,2 km/h (2 Bft)
22.11.2017 13:00 12,3 C 67 % 1013,1 hPa 0,0 l/m S-SW 1,00 h 292 W/m 10,4 km/h (2 Bft)
22.11.2017 14:00 12,2 C 65 % 1012,7 hPa 0,0 l/m S-SW 1,00 h 216 W/m 10,2 km/h (2 Bft)
22.11.2017 15:00 11,3 C 68 % 1012,3 hPa 0,0 l/m S-SW 0,50 h 77 W/m 5,2 km/h (1 Bft)
22.11.2017 16:00 8,8 C 75 % 1012,1 hPa 0,0 l/m S-SW 0,00 h 11 W/m 1,6 km/h (1 Bft)
22.11.2017 17:00 5,6 C 86 % 1012,0 hPa 0,0 l/m N 0,00 h 0 W/m 0,0 km/h (0 Bft)
22.11.2017 18:00 4,5 C 87 % 1011,8 hPa 0,0 l/m N 0,00 h 0 W/m 0,0 km/h (0 Bft)
22.11.2017 19:00 3,3 C 87 % 1011,6 hPa 0,0 l/m N 0,00 h 0 W/m 0,0 km/h (0 Bft)
22.11.2017 20:00 2,4 C 89 % 1011,3 hPa 0,0 l/m N 0,00 h 0 W/m 0,0 km/h (0 Bft)
22.11.2017 21:00 1,4 C 89 % 1011,1 hPa 0,0 l/m N 0,00 h 0 W/m 0,0 km/h (0 Bft)
22.11.2017 22:00 0,6 C 91 % 1011,1 hPa 0,0 l/m N 0,00 h 0 W/m 0,0 km/h (0 Bft)
22.11.2017 23:00 0,0 C 91 % 1010,9 hPa 0,0 l/m N 0,00 h 0 W/m 0,0 km/h (0 Bft)
23.11.2017 00:00 -0,4 C 92 % 1010,8 hPa 0,0 l/m N 0,00 h 0 W/m 0,0 km/h (0 Bft)
23.11.2017 01:00 -0,7 C 93 % 1010,6 hPa 0,0 l/m N 0,00 h 0 W/m 0,0 km/h (0 Bft)
23.11.2017 02:00 -0,8 C 94 % 1010,6 hPa 0,0 l/m N 0,00 h 0 W/m 0,0 km/h (0 Bft)
23.11.2017 03:00 -0,8 C 94 % 1010,7 hPa 0,0 l/m N 0,00 h 0 W/m 0,0 km/h (0 Bft)
23.11.2017 04:00 -1,1 C 94 % 1011,2 hPa 0,0 l/m N 0,00 h 0 W/m 0,0 km/h (0 Bft)
23.11.2017 05:00 -1,1 C 95 % 1011,5 hPa 0,0 l/m S-SW 0,00 h 0 W/m 2,7 km/h (1 Bft)
23.11.2017 06:00 0,1 C 96 % 1012,0 hPa 0,0 l/m S-SW 0,00 h 0 W/m 1,7 km/h (1 Bft)
23.11.2017 07:00 1,5 C 97 % 1012,3 hPa 0,0 l/m SW 0,08 h 11 W/m 13,3 km/h (3 Bft)
23.11.2017 08:00 3,4 C 96 % 1012,7 hPa 0,0 l/m SW 0,83 h 88 W/m 18,0 km/h (3 Bft)
23.11.2017 09:00 5,8 C 87 % 1013,1 hPa 0,0 l/m SW 1,00 h 191 W/m 15,8 km/h (3 Bft)
23.11.2017 10:00 7,6 C 80 % 1013,3 hPa 0,0 l/m SW 0,92 h 206 W/m 16,5 km/h (3 Bft)
23.11.2017 11:00 9,0 C 73 % 1013,2 hPa 0,0 l/m SW 1,00 h 321 W/m 18,1 km/h (3 Bft)
23.11.2017 12:00 10,2 C 71 % 1013,2 hPa 0,0 l/m SW 0,25 h 190 W/m 13,8 km/h (3 Bft)
23.11.2017 13:00 11,2 C 66 % 1013,1 hPa 0,0 l/m SW 0,42 h 203 W/m 15,8 km/h (3 Bft)
23.11.2017 14:00 11,3 C 64 % 1013,3 hPa 0,0 l/m SW 0,33 h 136 W/m 18,5 km/h (3 Bft)
23.11.2017 15:00 10,1 C 68 % 1013,6 hPa 0,0 l/m SW 0,42 h 72 W/m 14,6 km/h (3 Bft)
23.11.2017 16:00 9,3 C 71 % 1014,3 hPa 0,0 l/m SW 0,25 h 15 W/m 11,0 km/h (2 Bft)
23.11.2017 17:00 8,9 C 70 % 1014,7 hPa 0,0 l/m SW 0,00 h 0 W/m 10,5 km/h (2 Bft)
23.11.2017 18:00 8,8 C 70 % 1015,0 hPa 0,0 l/m SW 0,00 h 0 W/m 10,6 km/h (2 Bft)
23.11.2017 19:00 7,3 C 75 % 1015,0 hPa 0,0 l/m SW 0,00 h 0 W/m 6,2 km/h (2 Bft)
23.11.2017 20:00 6,1 C 79 % 1015,4 hPa 0,0 l/m SW 0,00 h 0 W/m 4,4 km/h (1 Bft)
23.11.2017 21:00 5,3 C 82 % 1015,7 hPa 0,0 l/m SW 0,00 h 0 W/m 2,3 km/h (1 Bft)
23.11.2017 22:00 4,9 C 83 % 1015,7 hPa 0,0 l/m N 0,00 h 0 W/m 0,0 km/h (0 Bft)
23.11.2017 23:00 4,9 C 86 % 1015,7 hPa 0,0 l/m SW 0,00 h 0 W/m 7,9 km/h (2 Bft)
24.11.2017 00:00 7,1 C 80 % 1015,5 hPa 0,0 l/m SW 0,00 h 0 W/m 14,8 km/h (3 Bft)
24.11.2017 01:00 8,5 C 71 % 1015,3 hPa 0,0 l/m SW 0,00 h 0 W/m 15,4 km/h (3 Bft)
24.11.2017 02:00 8,3 C 71 % 1015,3 hPa 0,0 l/m SW 0,00 h 0 W/m 12,2 km/h (2 Bft)
24.11.2017 03:00 7,3 C 78 % 1015,0 hPa 0,0 l/m SW 0,00 h 0 W/m 8,9 km/h (2 Bft)
24.11.2017 04:00 8,1 C 78 % 1014,8 hPa 0,0 l/m SW 0,00 h 0 W/m 11,3 km/h (2 Bft)
24.11.2017 05:00 7,3 C 77 % 1014,5 hPa 0,0 l/m SW 0,00 h 0 W/m 9,0 km/h (2 Bft)
24.11.2017 06:00 6,3 C 75 % 1014,2 hPa 0,0 l/m N 0,00 h 0 W/m 0,5 km/h (0 Bft)
24.11.2017 07:00 4,8 C 79 % 1013,9 hPa 0,0 l/m SW 0,08 h 10 W/m 1,3 km/h (1 Bft)
24.11.2017 08:00 4,1 C 83 % 1014,3 hPa 0,0 l/m SW 0,42 h 52 W/m 0,3 km/h (0 Bft)
24.11.2017 09:00 7,7 C 72 % 1014,4 hPa 0,0 l/m SW 0,67 h 162 W/m 13,3 km/h (3 Bft)
24.11.2017 10:00 9,1 C 69 % 1014,5 hPa 0,0 l/m SW 0,50 h 175 W/m 12,9 km/h (3 Bft)
24.11.2017 11:00 11,0 C 69 % 1013,8 hPa 0,0 l/m SW 0,92 h 335 W/m 17,4 km/h (3 Bft)
24.11.2017 12:00 12,8 C 64 % 1013,1 hPa 0,0 l/m W-SW 1,00 h 333 W/m 24,4 km/h (4 Bft)
24.11.2017 13:00 13,5 C 63 % 1013,2 hPa 0,0 l/m SW 0,83 h 235 W/m 20,1 km/h (4 Bft)
24.11.2017 14:00 13,5 C 62 % 1013,1 hPa 0,0 l/m W-SW 0,25 h 128 W/m 19,8 km/h (4 Bft)
24.11.2017 15:00 12,1 C 68 % 1013,1 hPa 0,0 l/m W-SW 0,00 h 52 W/m 9,5 km/h (2 Bft)
24.11.2017 16:00 11,2 C 69 % 1013,4 hPa 0,0 l/m W-SW 0,00 h 12 W/m 13,0 km/h (3 Bft)
24.11.2017 17:00 10,7 C 71 % 1013,5 hPa 0,0 l/m W-SW 0,00 h 0 W/m 8,6 km/h (2 Bft)
24.11.2017 18:00 9,2 C 78 % 1013,1 hPa 0,0 l/m N 0,00 h 0 W/m 0,7 km/h (0 Bft)
24.11.2017 19:00 8,4 C 82 % 1013,0 hPa 0,0 l/m W-SW 0,00 h 0 W/m 0,7 km/h (0 Bft)
24.11.2017 20:00 8,9 C 83 % 1013,2 hPa 0,0 l/m SW 0,00 h 0 W/m 9,1 km/h (2 Bft)
24.11.2017 21:00 9,7 C 82 % 1013,4 hPa 0,0 l/m W-SW 0,00 h 0 W/m 8,4 km/h (2 Bft)
24.11.2017 22:00 9,6 C 83 % 1013,1 hPa 0,0 l/m W-SW 0,00 h 0 W/m 6,0 km/h (2 Bft)
24.11.2017 23:00 8,8 C 85 % 1012,9 hPa 0,0 l/m W-SW 0,00 h 0 W/m 7,1 km/h (2 Bft)
25.11.2017 00:00 8,6 C 87 % 1012,1 hPa 0,0 l/m W-SW 0,00 h 0 W/m 6,3 km/h (2 Bft)
25.11.2017 01:00 8,3 C 88 % 1011,1 hPa 0,0 l/m N 0,00 h 0 W/m 0,0 km/h (0 Bft)
25.11.2017 02:00 7,8 C 90 % 1010,3 hPa 0,0 l/m N 0,00 h 0 W/m 0,8 km/h (0 Bft)
25.11.2017 03:00 7,6 C 91 % 1009,1 hPa 0,2 l/m N 0,00 h 0 W/m 0,0 km/h (0 Bft)
25.11.2017 04:00 7,3 C 92 % 1007,7 hPa 0,0 l/m N 0,00 h 0 W/m 0,0 km/h (0 Bft)
25.11.2017 05:00 7,0 C 93 % 1006,4 hPa 0,0 l/m SW 0,00 h 0 W/m 0,9 km/h (0 Bft)
25.11.2017 06:00 6,7 C 94 % 1005,3 hPa 0,0 l/m N 0,00 h 0 W/m 0,0 km/h (0 Bft)
25.11.2017 07:00 6,8 C 95 % 1004,8 hPa 0,0 l/m W-SW 0,00 h 5 W/m 0,1 km/h (0 Bft)
25.11.2017 08:00 7,2 C 96 % 1005,6 hPa 0,6 l/m NW 0,00 h 11 W/m 11,5 km/h (2 Bft)
25.11.2017 09:00 6,4 C 95 % 1006,6 hPa 2,0 l/m N-NW 0,00 h 32 W/m 15,0 km/h (3 Bft)
25.11.2017 10:00 5,8 C 95 % 1008,1 hPa 2,4 l/m W 0,00 h 34 W/m 12,6 km/h (3 Bft)
25.11.2017 11:00 5,0 C 95 % 1009,2 hPa 2,2 l/m W-NW 0,00 h 36 W/m 14,9 km/h (3 Bft)
25.11.2017 12:00 4,2 C 95 % 1010,4 hPa 2,2 l/m W 0,00 h 38 W/m 20,0 km/h (4 Bft)
25.11.2017 13:00 3,7 C 95 % 1010,6 hPa 0,8 l/m W-SW 0,00 h 65 W/m 18,9 km/h (3 Bft)
25.11.2017 14:00 3,7 C 95 % 1011,2 hPa 0,0 l/m W-SW 0,00 h 66 W/m 23,2 km/h (4 Bft)
25.11.2017 15:00 3,8 C 95 % 1011,8 hPa 0,0 l/m W-SW 0,00 h 34 W/m 21,0 km/h (4 Bft)
25.11.2017 16:00 3,7 C 94 % 1012,4 hPa 0,0 l/m W-SW 0,00 h 8 W/m 14,9 km/h (3 Bft)
25.11.2017 17:00 3,7 C 94 % 1013,0 hPa 0,0 l/m W-SW 0,00 h 0 W/m 16,2 km/h (3 Bft)
25.11.2017 18:00 3,6 C 94 % 1013,4 hPa 0,0 l/m W-SW 0,00 h 0 W/m 15,6 km/h (3 Bft)
25.11.2017 19:00 3,6 C 94 % 1014,4 hPa 0,0 l/m W-SW 0,00 h 0 W/m 13,6 km/h (3 Bft)
25.11.2017 20:00 3,4 C 94 % 1015,2 hPa 0,0 l/m W 0,00 h 0 W/m 13,8 km/h (3 Bft)
25.11.2017 21:00 3,0 C 94 % 1015,8 hPa 0,0 l/m W 0,00 h 0 W/m 12,5 km/h (3 Bft)
25.11.2017 22:00 2,5 C 93 % 1016,7 hPa 0,4 l/m N-NW 0,00 h 0 W/m 7,2 km/h (2 Bft)
25.11.2017 23:00 1,7 C 94 % 1017,6 hPa 0,4 l/m N-NW 0,00 h 0 W/m 2,5 km/h (1 Bft)
26.11.2017 00:00 1,3 C 94 % 1018,3 hPa 0,4 l/m N-NW 0,00 h 0 W/m 1,5 km/h (1 Bft)
26.11.2017 01:00 1,3 C 95 % 1018,9 hPa 0,0 l/m N 0,00 h 0 W/m 1,6 km/h (1 Bft)
26.11.2017 02:00 1,1 C 95 % 1019,9 hPa 0,0 l/m NW 0,00 h 0 W/m 4,6 km/h (1 Bft)
26.11.2017 03:00 0,8 C 95 % 1020,7 hPa 0,0 l/m W-NW 0,00 h 0 W/m 7,6 km/h (2 Bft)
26.11.2017 04:00 0,4 C 94 % 1021,7 hPa 0,0 l/m W 0,00 h 0 W/m 8,0 km/h (2 Bft)
26.11.2017 05:00 0,1 C 95 % 1022,1 hPa 0,0 l/m W 0,00 h 0 W/m 7,5 km/h (2 Bft)
26.11.2017 06:00 -0,4 C 94 % 1022,6 hPa 0,0 l/m SW 0,00 h 0 W/m 9,9 km/h (2 Bft)
26.11.2017 07:00 -0,7 C 95 % 1022,9 hPa 0,0 l/m SW 0,00 h 6 W/m 12,5 km/h (3 Bft)
26.11.2017 08:00 -0,6 C 95 % 1023,6 hPa 0,0 l/m SW 0,00 h 23 W/m 13,3 km/h (3 Bft)
26.11.2017 09:00 -0,2 C 95 % 1023,9 hPa 0,0 l/m SW 0,00 h 69 W/m 12,2 km/h (2 Bft)
26.11.2017 10:00 0,4 C 93 % 1024,3 hPa 0,0 l/m SW 0,50 h 219 W/m 15,4 km/h (3 Bft)
26.11.2017 11:00 0,8 C 92 % 1024,2 hPa 0,0 l/m SW 0,33 h 158 W/m 13,0 km/h (3 Bft)
26.11.2017 12:00 1,9 C 88 % 1024,2 hPa 0,0 l/m W-SW 0,67 h 292 W/m 16,6 km/h (3 Bft)
26.11.2017 13:00 1,8 C 87 % 1024,3 hPa 0,0 l/m W 0,00 h 125 W/m 19,2 km/h (3 Bft)
26.11.2017 14:00 2,1 C 86 % 1024,1 hPa 0,0 l/m W-SW 0,33 h 141 W/m 16,8 km/h (3 Bft)
26.11.2017 15:00 1,6 C 88 % 1024,5 hPa 0,2 l/m W-SW 0,33 h 62 W/m 18,4 km/h (3 Bft)
26.11.2017 16:00 1,1 C 90 % 1025,0 hPa 0,0 l/m W-SW 0,00 h 8 W/m 12,4 km/h (3 Bft)
26.11.2017 17:00 0,8 C 92 % 1025,6 hPa 1,0 l/m N 0,00 h 0 W/m 1,2 km/h (1 Bft)
26.11.2017 18:00 0,3 C 93 % 1026,0 hPa 0,4 l/m N 0,00 h 0 W/m 2,3 km/h (1 Bft)
26.11.2017 19:00 -0,1 C 94 % 1026,3 hPa 0,2 l/m SW 0,00 h 0 W/m 7,4 km/h (2 Bft)
26.11.2017 20:00 0,2 C 95 % 1026,6 hPa 0,0 l/m W-SW 0,00 h 0 W/m 5,5 km/h (1 Bft)
26.11.2017 21:00 0,1 C 95 % 1026,8 hPa 0,0 l/m W 0,00 h 0 W/m 4,7 km/h (1 Bft)
26.11.2017 22:00 -0,2 C 95 % 1026,9 hPa 0,0 l/m W 0,00 h 0 W/m 5,2 km/h (1 Bft)
26.11.2017 23:00 -0,1 C 95 % 1026,9 hPa 0,0 l/m W-SW 0,00 h 0 W/m 9,5 km/h (2 Bft)
Min-Datum _ 23.11.17 24.11.17 25.11.17 - - - - 20.11.17
_ Min-Zeit 04:50 14:05 07:10 - - - - 00:00
Minimum _ -1,2 C 60 % 1004,6 hPa - - - - 0,0 km/h (0 Bft)
Max-Datum _ 24.11.17 20.11.17 26.11.17 25.11.17 - 21.11.17 21.11.17 20.11.17
_ Max-Zeit 14:00 22:45 21:35 10:00 - 07:50 13:00 18:20
Maximum _ 14,2 C 100 % 1027,1 hPa 2,4 l/m - 0,08 h 512 W/m 29,0 km/h
W-SW (5 Bft)
Durchschnitt _ 4,6 C 88 % 1016,3 hPa #22,2 l/m SW #20:00 h 109 W/m 9,8 km/h (2 Bft)